カタログに戻る

OVZON-3

運用中通信GEO
NORAD 58698·PAYLOAD·🇸🇪 Sweden

打ち上げ Jan 3, 2024 から Cape Canaveral Space Force Station

Loading…

TLE

最新Source: Space-Track

元期: Sep 12, 2026, 10:46 UTC

1 58698U 24003A   26255.44864888  .00000037  00000-0  00000-0 0  9995
2 58698   0.0125 169.9200 0000249 271.1537 131.6008  1.00273789  8323

AllMySatでOVZON-3をリアルタイム追跡

Download on the App Store